User: anonymous   Login
Location: Oshawa
(43.9000°N, 78.8670°W)
Time: 07:05:05
(UTC-04:00)
Language:

CARTOSAT-1 - Orbit

View from above orbital plane
View from above orbital plane
View from above satellite
View from above satellite

Ground track
Ground track

The orbit data is extracted from the following two-line orbital elements,

1 28649U 05017A   18175.21619254  .00000130  00000-0  22149-4 0  9990
2 28649  97.8219 247.9141 0000343 295.8737  64.2457 14.83469876711133
Epoch (UTC): 24 June 2018 05:11:19
Eccentricity: 0.0000343
inclination: 97.8219°
perigee height: 618 km
apogee height: 618 km
right ascension of ascending node: 247.9141°
argument of perigee: 295.8737°
revolutions per day: 14.83469876
mean anomaly at epoch: 64.2457°
orbit number at epoch: 71113

The dashed part of the orbit path shows where the satellite is in the earth's shadow,  

DLR